Regional Weather Roundup
Issued by NWS

Home | Current Version | Previous Version | Graphics & Text | Print | Product List | Glossary On
Versions: 1 2 3 4 5 6 7 8 9 10 11 12 13 14 15 16 17 18 19 20 21 22 23 24 25 26 27 28 29 30 31 32 33 34 35 36 37 38 39 40 41 42 43 44 45 46 47 48 49 50
000
ASUS44 KMEG 211710
RWRTN
TENNESSEE HOURLY STATE WEATHER ROUNDUP
NATIONAL WEATHER SERVICE MEMPHIS TN
1200 PM CDT THU AUG 21 2014

TNZ002-004-019-021-049-052-054-088>092-211800-
WEST TENNESSEE

CITY           SKY/WX    TMP DP  RH WIND       PRES   REMARKS
MEMPHIS INTL   MOSUNNY   91  74  57 SW8G21    30.11F HX 100
NWS MEMPHIS      N/A     89 N/A N/A MISG        N/A
JACKSON        SUNNY     89  74  60 SW6       30.12S HX  98
DYERSBURG      SUNNY     90  68  48 SW14      30.11S HX  93
UNION CITY     SUNNY     88  75  66 SW12      30.08F HX  97
PARIS          SUNNY     88  73  62 SW9       30.12F HX  96
HUNTINGDON     MOSUNNY   87  73  62 W8        30.11F HX  94
LEXINGTON      MOSUNNY   90  73  58 SW10      30.12F HX  98
SAVANNAH       PTSUNNY   90  77  66 W10       30.14F HX 102
$$

TNZ008-025-027-028-033-062-065-066-211800-
NORTH MIDDLE TENNESSEE

CITY           SKY/WX    TMP DP  RH WIND       PRES   REMARKS
NASHVILLE      MOSUNNY   90  71  53 W10       30.14F HX  96
PORTLAND       PTSUNNY   86  73  66 W9        30.13S HX  93
CLARKSVILLE    MOSUNNY   88  72  58 W10       30.11F HX  94
SMYRNA         MOSUNNY   90  72  55 W13       30.15S HX  97
MURFREESBORO   MOSUNNY   89  71  55 W7        30.14S HX  95
COOKEVILLE     MOSUNNY   90  75  62 SW8       30.18S HX 100
GALLATIN       MOSUNNY   90  77  65 W5        30.15S HX 103
CROSSVILLE     MOSUNNY   81  68  64 NW10      30.23S
$$

TNZ061-075-076-078-094-096-097-211800-
SOUTH MIDDLE TENNESSEE

CITY           SKY/WX    TMP DP  RH WIND       PRES   REMARKS
LEWISBURG      SUNNY     90  71  53 W7        30.15S HX  96
FAYETTEVILLE   MOSUNNY   88  70  55 W9        30.17S HX  92
TULLAHOMA      MOSUNNY   88  72  58 W7        30.19S HX  94
WINCHESTER     SUNNY     86  73  66 W9        30.18S HX  93
MCMINNVILLE    MOSUNNY   88  75  66 W8        30.18S HX  97
COLUMBIA       MOSUNNY   91  73  55 CALM      30.14S HX 100
SHELBYVILLE    MOSUNNY   91  75  59 W6        30.17S HX 102
$$

TNZ017-018-042-046-047-211800-
NORTHEAST TENNESSEE

CITY           SKY/WX    TMP DP  RH WIND       PRES   REMARKS
TRI CITIES     PTSUNNY   77  67  71 VRB7      30.21S
ELIZABETHTON   PTSUNNY   79  66  65 CALM      30.21S
$$

TNZ012-013-036-069-073-074-211800-
CENTRAL EAST TENNESSEE

CITY           SKY/WX    TMP DP  RH WIND       PRES   REMARKS
KNOXVILLE      MOSUNNY   82  71  69 CALM      30.17F
OAK RIDGE      MOSUNNY   81  71  71 CALM      30.19F
GATLINBURG     SUNNY     82  70  65 NW3       30.17F
MORRISTOWN     SUNNY     81  72  74 VRB5      30.20F
$$

TNZ083-085-099-211800-
SOUTHEAST TENNESSEE

CITY           SKY/WX    TMP DP  RH WIND       PRES   REMARKS
CHATTANOOGA    MOSUNNY   88  71  57 CALM      30.16F HX  94
$$

SKY/WX REPORTED AS FAIR MEANS FEW OR NO CLOUDS BELOW
12 THOUSAND FEET.




USA.gov is the U.S. government's official web portal to all federal, state and local government web resources and services.